This is the latest recevied weather packets stored in our database for station/object EA1FLU-10. If no packets are shown the sender has not sent any weather packets the latest 10 day(s).
| Time | Temp. | Humidity | Pressure | Rain* | Wind** | Luminosity | Snow |
|---|---|---|---|---|---|---|---|
| 1777830340 | 22.22° C | 43% | 1016.2 hPa | - | - | - | - |
| 1777828540 | 22.78° C | 42% | 1016.1 hPa | - | - | - | - |
| 1777826740 | 23.33° C | 41% | 1016.1 hPa | - | - | - | - |
| 1777824940 | 24.44° C | 39% | 1015.6 hPa | - | - | - | - |
| 1777823140 | 25° C | 38% | 1015 hPa | - | - | - | - |
| 1777821340 | 25° C | 37% | 1015 hPa | - | - | - | - |
| 1777819540 | 24.44° C | 37% | 1015.3 hPa | - | - | - | - |
| 1777817740 | 23.89° C | 40% | 1015.7 hPa | - | - | - | - |
| 1777815940 | 23.89° C | 38% | 1016.2 hPa | - | - | - | - |
| 1777814140 | 23.33° C | 37% | 1016.4 hPa | - | - | - | - |
| 1777812340 | 23.33° C | 39% | 1016.6 hPa | - | - | - | - |
| 1777810540 | 23.89° C | 38% | 1016.9 hPa | - | - | - | - |
| 1777808740 | 23.33° C | 39% | 1017.4 hPa | - | - | - | - |
| 1777806940 | 23.89° C | 38% | 1017.6 hPa | - | - | - | - |
| 1777805139 | 22.78° C | 40% | 1017.8 hPa | - | - | - | - |
| 1777803339 | 20.56° C | 43% | 1018.1 hPa | - | - | - | - |
| 1777801539 | 19.44° C | 46% | 1018.3 hPa | - | - | - | - |
| 1777799739 | 18.33° C | 51% | 1018.5 hPa | - | - | - | - |
| 1777797939 | 17.22° C | 55% | 1018.6 hPa | - | - | - | - |
| 1777796139 | 16.67° C | 55% | 1018.8 hPa | - | - | - | - |
| 1777794339 | 15.56° C | 57% | 1018.8 hPa | - | - | - | - |
| 1777792539 | 15° C | 57% | 1018.8 hPa | - | - | - | - |
| 1777790739 | 15° C | 56% | 1018.8 hPa | - | - | - | - |
| 1777788945 | 15° C | 56% | 1018.7 hPa | - | - | - | - |
| 1777787138 | 15° C | 55% | 1018.6 hPa | - | - | - | - |
* Rain since midnight (hover to see other rain measurements)
** Current wind speed in m/s (hover to see current wind gust speed)